| time (UTC) | temp F | wind direction | speed MPH | gust MPH | rain 1hr in | rain 24hr in | rain mn in | humidity % | barometer mb |
| 20260509194552 | 68 | 0 | 0.0 | 0.0 | 0.00 | 0.00 | 0.00 | 69 | 1009.7 |
| 20260509193040 | 69 | 0 | 0.0 | 0.0 | 0.00 | 0.00 | 0.00 | 66 | 1009.6 |
| 20260509191538 | 70 | 0 | 0.0 | 0.0 | 0.00 | 0.00 | 0.00 | 65 | 1009.4 |
| 20260509190037 | 71 | 0 | 0.0 | 2.0 | 0.00 | 0.00 | 0.00 | 64 | 1009.4 |
| 20260509184539 | 71 | 63 | 0.0 | 3.0 | 0.00 | 0.00 | 0.00 | 62 | 1009.4 |
| 20260509183039 | 72 | 0 | 0.0 | 3.0 | 0.00 | 0.00 | 0.00 | 60 | 1009.2 |
| 20260509181538 | 72 | 84 | 1.0 | 3.0 | 0.00 | 0.00 | 0.00 | 60 | 1009.3 |
| 20260509180049 | 73 | 0 | 0.0 | 4.0 | 0.00 | 0.00 | 0.00 | 59 | 1009.4 |
| 20260509174537 | 73 | 0 | 0.0 | 4.0 | 0.00 | 0.00 | 0.00 | 58 | 1009.5 |
| 20260509173053 | 74 | 75 | 1.0 | 5.0 | 0.00 | 0.00 | 0.00 | 56 | 1009.4 |
| 20260509171541 | 74 | 56 | 1.0 | 3.0 | 0.00 | 0.00 | 0.00 | 56 | 1009.4 |
| 20260509170038 | 74 | 0 | 0.0 | 4.0 | 0.00 | 0.00 | 0.00 | 56 | 1009.3 |
| 20260509164538 | 74 | 97 | 1.0 | 5.0 | 0.00 | 0.00 | 0.00 | 55 | 1009.4 |
| 20260509163040 | 75 | 103 | 2.0 | 6.0 | 0.00 | 0.00 | 0.00 | 54 | 1009.6 |
| 20260509161552 | 74 | 107 | 1.0 | 4.0 | 0.00 | 0.00 | 0.00 | 56 | 1009.5 |
| 20260509160040 | 74 | 83 | 1.0 | 7.0 | 0.00 | 0.00 | 0.00 | 55 | 1009.7 |
| 20260509154545 | 75 | 136 | 1.0 | 4.0 | 0.00 | 0.00 | 0.00 | 56 | 1009.8 |
| 20260509153051 | 75 | 122 | 2.0 | 6.0 | 0.00 | 0.00 | 0.00 | 54 | 1009.8 |
| 20260509151536 | 75 | 143 | 2.0 | 6.0 | 0.00 | 0.00 | 0.00 | 54 | 1009.9 |
| 20260509150042 | 75 | 90 | 1.0 | 6.0 | 0.00 | 0.00 | 0.00 | 54 | 1010.1 |
| 20260509144545 | 75 | 152 | 1.0 | 5.0 | 0.00 | 0.00 | 0.00 | 53 | 1010.3 |
| 20260509143038 | 75 | 76 | 2.0 | 7.0 | 0.00 | 0.00 | 0.00 | 55 | 1010.4 |
| 20260509141542 | 75 | 97 | 1.0 | 5.0 | 0.00 | 0.00 | 0.00 | 54 | 1010.6 |
| 20260509140052 | 75 | 65 | 2.0 | 7.0 | 0.00 | 0.00 | 0.00 | 54 | 1010.8 |
| 20260509134540 | 74 | 90 | 2.0 | 8.0 | 0.00 | 0.00 | 0.00 | 56 | 1011.0 |
| 20260509133039 | 74 | 76 | 2.0 | 7.0 | 0.00 | 0.00 | 0.00 | 56 | 1011.1 |
| 20260509131538 | 74 | 62 | 2.0 | 7.0 | 0.00 | 0.00 | 0.00 | 59 | 1011.1 |
| 20260509130038 | 74 | 126 | 1.0 | 7.0 | 0.00 | 0.00 | 0.00 | 58 | 1011.3 |
| 20260509124536 | 73 | 116 | 2.0 | 7.0 | 0.00 | 0.00 | 0.00 | 59 | 1011.3 |
| 20260509123033 | 73 | 104 | 3.0 | 7.0 | 0.00 | 0.00 | 0.00 | 58 | 1011.3 |
| 20260509121534 | 73 | 107 | 2.0 | 6.0 | 0.00 | 0.00 | 0.00 | 59 | 1011.3 |
| 20260509120039 | 73 | 0 | 2.0 | 7.0 | 0.00 | 0.00 | 0.00 | 60 | 1011.2 |
| 20260509114538 | 73 | 72 | 3.0 | 9.0 | 0.00 | 0.00 | 0.00 | 59 | 1011.5 |
| 20260509113035 | 73 | 109 | 1.0 | 7.0 | 0.00 | 0.00 | 0.00 | 58 | 1011.5 |
| 20260509111536 | 73 | 110 | 2.0 | 8.0 | 0.00 | 0.00 | 0.00 | 59 | 1011.8 |
| 20260509110035 | 72 | 0 | 1.0 | 8.0 | 0.00 | 0.00 | 0.00 | 64 | 1011.9 |
| 20260509104539 | 71 | 113 | 3.0 | 10.0 | 0.00 | 0.00 | 0.00 | 65 | 1012.1 |
| 20260509103046 | 71 | 153 | 3.0 | 9.0 | 0.00 | 0.00 | 0.00 | 66 | 1012.4 |
| 20260509101540 | 71 | 169 | 3.0 | 8.0 | 0.00 | 0.00 | 0.00 | 66 | 1012.4 |
| 20260509100038 | 70 | 113 | 1.0 | 7.0 | 0.00 | 0.00 | 0.00 | 67 | 1012.5 |
| 20260509094536 | 70 | 138 | 3.0 | 8.0 | 0.00 | 0.00 | 0.00 | 67 | 1012.5 |
| 20260509093039 | 69 | 139 | 2.0 | 7.0 | 0.00 | 0.00 | 0.00 | 70 | 1012.5 |
| 20260509091548 | 68 | 139 | 3.0 | 7.0 | 0.00 | 0.00 | 0.00 | 69 | 1012.3 |
| 20260509090050 | 67 | 169 | 3.0 | 7.0 | 0.00 | 0.00 | 0.00 | 70 | 1012.2 |
| 20260509084536 | 66 | 142 | 4.0 | 9.0 | 0.00 | 0.00 | 0.00 | 73 | 1012.4 |
| 20260509083040 | 65 | 155 | 2.0 | 7.0 | 0.00 | 0.00 | 0.00 | 74 | 1012.4 |
| 20260509081534 | 63 | 159 | 2.0 | 8.0 | 0.00 | 0.00 | 0.00 | 76 | 1012.6 |
| 20260509080046 | 62 | 162 | 3.0 | 7.0 | 0.00 | 0.00 | 0.00 | 76 | 1012.6 |
| 20260509074550 | 62 | 159 | 2.0 | 8.0 | 0.00 | 0.00 | 0.00 | 78 | 1012.9 |
| 20260509073054 | 61 | 125 | 1.0 | 6.0 | 0.00 | 0.00 | 0.00 | 79 | 1012.7 |
| 20260509071535 | 60 | 141 | 3.0 | 8.0 | 0.00 | 0.00 | 0.00 | 78 | 1012.8 |
| 20260509070044 | 59 | 131 | 2.0 | 8.0 | 0.00 | 0.00 | 0.00 | 79 | 1012.9 |
| 20260509064540 | 59 | 171 | 3.0 | 8.0 | 0.00 | 0.00 | 0.00 | 80 | 1012.7 |
| 20260509063052 | 58 | 138 | 1.0 | 5.0 | 0.00 | 0.00 | 0.00 | 81 | 1012.8 |
| 20260509061537 | 57 | 0 | 0.0 | 4.0 | 0.00 | 0.00 | 0.00 | 81 | 1012.8 |
| 20260509060048 | 58 | 146 | 0.0 | 6.0 | 0.00 | 0.00 | 0.00 | 80 | 1012.6 |
| 20260509054537 | 58 | 152 | 1.0 | 6.0 | 0.00 | 0.00 | 0.00 | 80 | 1012.5 |
| 20260509053057 | 58 | 150 | 2.0 | 5.0 | 0.00 | 0.00 | 0.00 | 80 | 1012.4 |
| 20260509051538 | 57 | 142 | 1.0 | 5.0 | 0.00 | 0.00 | 0.00 | 80 | 1012.3 |
| 20260509050038 | 57 | 149 | 1.0 | 5.0 | 0.00 | 0.00 | 0.00 | 80 | 1012.2 |
| 20260509044536 | 57 | 126 | 0.0 | 2.0 | 0.00 | 0.00 | 0.00 | 81 | 1011.9 |
| 20260509043046 | 57 | 126 | 1.0 | 3.0 | 0.00 | 0.00 | 0.00 | 80 | 1011.9 |
| 20260509041541 | 58 | 147 | 1.0 | 5.0 | 0.00 | 0.00 | 0.00 | 80 | 1012.0 |
| 20260509040058 | 58 | 153 | 3.0 | 6.0 | 0.00 | 0.00 | 0.00 | 80 | 1011.9 |
| 20260509034538 | 58 | 160 | 2.0 | 5.0 | 0.00 | 0.00 | 0.00 | 82 | 1011.9 |
| 20260509033047 | 57 | 142 | 1.0 | 5.0 | 0.00 | 0.00 | 0.00 | 83 | 1012.0 |
| 20260509031538 | 56 | 96 | 0.0 | 2.0 | 0.00 | 0.00 | 0.00 | 86 | 1012.1 |
| 20260509030039 | 56 | 0 | 0.0 | 0.0 | 0.00 | 0.00 | 0.00 | 85 | 1012.0 |
| 20260509024547 | 56 | 0 | 0.0 | 0.0 | 0.00 | 0.00 | 0.00 | 85 | 1012.0 |
| 20260509023038 | 56 | 0 | 0.0 | 0.0 | 0.00 | 0.00 | 0.00 | 84 | 1012.0 |
| 20260509021538 | 56 | 97 | 1.0 | 3.0 | 0.00 | 0.00 | 0.00 | 83 | 1012.2 |
| 20260509020035 | 57 | 96 | 1.0 | 3.0 | 0.00 | 0.00 | 0.00 | 82 | 1012.2 |
| 20260509014542 | 57 | 85 | 1.0 | 3.0 | 0.00 | 0.00 | 0.00 | 81 | 1012.1 |
| 20260509013033 | 58 | 79 | 1.0 | 4.0 | 0.00 | 0.00 | 0.00 | 80 | 1012.1 |
| 20260509011544 | 58 | 72 | 1.0 | 4.0 | 0.00 | 0.00 | 0.00 | 79 | 1012.2 |
| 20260509010040 | 58 | 74 | 1.0 | 3.0 | 0.00 | 0.00 | 0.00 | 79 | 1012.3 |
| 20260509004537 | 58 | 93 | 2.0 | 7.0 | 0.00 | 0.00 | 0.00 | 80 | 1012.3 |
| 20260509003037 | 58 | 63 | 0.0 | 3.0 | 0.00 | 0.00 | 0.00 | 80 | 1012.4 |
| 20260509001537 | 59 | 0 | 0.0 | 2.0 | 0.00 | 0.00 | 0.00 | 80 | 1012.3 |
| 20260509000040 | 59 | 0 | 0.0 | 3.0 | 0.00 | 0.00 | 0.00 | 79 | 1012.3 |
| 20260508234538 | 60 | 0 | 1.0 | 4.0 | 0.00 | 0.00 | 0.00 | 79 | 1012.4 |
| 20260508233039 | 60 | 60 | 1.0 | 5.0 | 0.00 | 0.00 | 0.00 | 79 | 1012.3 |
| 20260508231537 | 60 | 67 | 0.0 | 4.0 | 0.00 | 0.00 | 0.00 | 79 | 1012.5 |
| 20260508230036 | 61 | 0 | 1.0 | 4.0 | 0.00 | 0.00 | 0.00 | 79 | 1012.6 |
| 20260508224548 | 61 | 63 | 1.0 | 3.0 | 0.00 | 0.00 | 0.00 | 79 | 1012.5 |
| 20260508223035 | 61 | 0 | 0.0 | 0.0 | 0.00 | 0.00 | 0.00 | 79 | 1012.5 |
| 20260508221539 | 61 | 0 | 0.0 | 2.0 | 0.00 | 0.00 | 0.00 | 79 | 1012.6 |
| 20260508220047 | 61 | 70 | 0.0 | 0.0 | 0.00 | 0.00 | 0.00 | 78 | 1012.7 |
| 20260508214543 | 61 | 0 | 0.0 | 2.0 | 0.00 | 0.00 | 0.00 | 78 | 1012.5 |
| 20260508213041 | 61 | 70 | 0.0 | 2.0 | 0.00 | 0.00 | 0.00 | 77 | 1012.7 |
| 20260508211538 | 62 | 0 | 0.0 | 0.0 | 0.00 | 0.00 | 0.00 | 76 | 1012.8 |
| 20260508210039 | 62 | 0 | 0.0 | 0.0 | 0.00 | 0.00 | 0.00 | 74 | 1012.7 |
| 20260508204539 | 63 | 0 | 0.0 | 0.0 | 0.00 | 0.00 | 0.00 | 73 | 1012.6 |
| 20260508203040 | 63 | 0 | 0.0 | 0.0 | 0.00 | 0.00 | 0.00 | 71 | 1012.5 |
| 20260508201536 | 64 | 0 | 0.0 | 2.0 | 0.00 | 0.00 | 0.00 | 70 | 1012.5 |
| 20260508200036 | 65 | 0 | 0.0 | 0.0 | 0.00 | 0.00 | 0.00 | 68 | 1012.4 |